Location: Harwich
(41.7160°N, 69.9939°W)
Time: 14:34:14
(UTC+01:00)

A-11 Canister half - Pass Details

Date: 06 December 2023
Orbit: 1526 x 1682 km, 47.3° (Epoch: 01 March)

Event Time Altitude Azimuth Distance (km) Brightness Sun altitude
Rises 07:15:41 0° 297° (WNW) 4,897 - -60.8°
Reaches altitude 10° 07:19:01 10° 292° (WNW) 3,890 - -60.3°
Maximum altitude 07:28:17 47° 223° (SW) 2,033 - -58.8°
Drops below altitude 10° 07:37:16 10° 153° (SSE) 3,760 - -57.3°
Sets 07:40:26 0° 148° (SSE) 4,723 - -56.8°
